Regional Weather Roundup
Issued by NWS

Home | Current Version | Previous Version | Graphics & Text | Print | Product List | Glossary On
Versions: 1 2 3 4 5 6 7 8 9 10 11 12 13 14 15 16 17 18 19 20 21 22 23 24 25 26 27 28 29 30 31 32 33 34 35 36 37 38 39 40 41 42 43 44 45 46 47 48 49 50
000
ASUS43 KOAX 040202
RWRNE

WEATHER ROUNDUP FOR NEBRASKA
NATIONAL WEATHER SERVICE OMAHA NE
900 PM CDT FRI JUL 03 2015

NOTES: SATELLITE DATA IS BEING USED TO AUGMENT CLOUD COVER ABOVE
       12000 FEET.
       "FAIR" INDICATES FEW OR NO CLOUDS BELOW 12,000 FEET WITH NO
       SIGNIFICANT WEATHER AND/OR OBSTRUCTIONS TO VISIBILITY.

  * THESE STATIONS DO NOT REPORT WEATHER SUCH AS RAIN...SNOW OR FOG.

NEZ001>004-019>022-054>056-040300-
NEBRASKA PANHANDLE

CITY           SKY/WX    TMP DP  RH WIND       PRES   REMARKS
SCOTTSBLUFF    PTCLDY    80  56  43 SE14      29.99S
ALLIANCE       CLEAR     70  59  68 E8        30.00S
CHADRON        CLEAR     77  62  59 E5        29.95S
KIMBALL          N/A    N/A N/A N/A MISG        N/A
SIDNEY         PTCLDY    75  56  51 SE8       30.05R
$$

NEZ057>060-069>072-079>082-040300-
SOUTHWEST NEBRASKA

CITY           SKY/WX    TMP DP  RH WIND       PRES   REMARKS
NORTH PLATTE   CLEAR     74  63  68 SE6       29.99R
IMPERIAL       CLEAR     75  58  55 E7        30.00R
LEXINGTON      CLEAR     75  64  68 SE8       29.99R
MCCOOK         CLEAR     75  62  64 SE10      29.99R
$$

NEZ005>010-023>029-035>040-094-040300-
NORTH CENTRAL NEBRASKA

CITY           SKY/WX    TMP DP  RH WIND       PRES   REMARKS
VALENTINE      CLEAR     74  62  66 E5        29.96S
AINSWORTH      CLEAR     73  62  67 E7        29.97S
BROKEN BOW     CLEAR     74  63  68 SE6       29.97F
ORD            CLEAR     76  61  59 SE6       29.95S
$$

NEZ041-046>049-061>064-073>077-083>087-040300-
SOUTH CENTRAL NEBRASKA

CITY           SKY/WX    TMP DP  RH WIND       PRES   REMARKS
GRAND ISLAND   CLEAR     71  64  78 SE5       29.99R
AURORA         CLEAR     70  67  90 E5        29.98S
HASTINGS       CLEAR     72  62  71 SE5       29.98S
KEARNEY *      CLEAR     72  61  68 SE6       29.99R
$$

NEZ011>018-030>034-042>045-040300-
NORTHEAST NEBRASKA

CITY           SKY/WX    TMP DP  RH WIND       PRES   REMARKS
NORFOLK        PTCLDY    69  64  84 S5        29.97S
BLAIR          CLEAR     69  59  68 CALM      29.96S
COLUMBUS *     CLEAR     68  63  83 CALM      29.96F
FREMONT        PTCLDY    75  59  58 CALM      29.97R
TEKAMAH        PTCLDY    70  59  68 SE3       29.95S
$$

NEZ050>053-065>068-078-088>093-040300-
SOUTHEAST NEBRASKA

CITY           SKY/WX    TMP DP  RH WIND       PRES   REMARKS
LINCOLN        CLEAR     72  61  68 NE5       29.97S
OMAHA EPPLEY   PTCLDY    70  61  73 E5        29.95F
FALLS CITY     CLEAR     73  60  63 N3        29.94F
PLATTSMOUTH    CLEAR     72  55  55 CALM      29.96F
$$

NEZ044-045-051>053-067-040300-
OMAHA AREA

CITY           SKY/WX    TMP DP  RH WIND       PRES   REMARKS
OMAHA EPPLEY   PTCLDY    70  61  73 E5        29.95F
BLAIR          CLEAR     69  59  68 CALM      29.96S
FREMONT        PTCLDY    75  59  58 CALM      29.97R
MILLARD        CLEAR     72  59  62 CALM      29.96R
OFFUTT AFB     CLEAR     64  61  89 E3        29.95S
PLATTSMOUTH    CLEAR     72  55  55 CALM      29.96F
$$


USA.gov is the U.S. government's official web portal to all federal, state and local government web resources and services.